Location: Leeds
(37.2390°N, 113.3580°W)
Time: 02:19:15
(UTC-06:00)

ISS - All Passes

Search period start: 25 July 2014 00:00
Search period end: 04 August 2014 00:00
Orbit: 411 x 419 km, 51.6° (Epoch: 24 July)

Date Brightness Start Highest point End Pass type
(mag) Time Alt. Az. Time Alt. Az. Time Alt. Az.
25 Jul - 01:38:51 10° SW 01:42:10 73° SE 01:45:31 10° NE visible
25 Jul - 03:16:58 10° WNW 03:19:13 17° NNW 03:21:28 10° NNE visible
25 Jul - 06:35:00 10° NNE 06:35:14 10° NNE 06:35:27 10° NNE daylight
25 Jul - 08:09:33 10° NW 08:12:43 37° NE 08:15:52 10° ESE daylight
25 Jul - 09:46:44 10° W 09:49:15 20° SW 09:51:46 10° S daylight
26 Jul - 00:50:24 10° SSW 00:53:30 37° SE 00:56:37 10° ENE night (unlit)
26 Jul - 02:27:30 10° W 02:30:17 24° NNW 02:33:05 10° NNE visible
26 Jul - 07:21:03 10° NNW 07:23:52 24° NNE 07:26:40 10° E daylight
26 Jul - 08:57:32 10° WNW 09:00:39 36° SW 09:03:46 10° SSE daylight
27 Jul - 00:02:25 10° S 00:04:55 20° SE 00:07:26 10° E night (unlit)
27 Jul - 01:38:19 10° WSW 01:41:27 37° NW 01:44:37 10° NE visible
27 Jul - 06:32:42 10° NNW 06:34:59 17° NNE 06:37:15 10° ENE daylight
27 Jul - 08:08:40 10° NW 08:12:02 72° SW 08:15:22 10° SE daylight
27 Jul - 23:15:37 10° SE 23:16:26 11° SE 23:17:15 10° ESE night (unlit)
28 Jul - 00:49:24 10° WSW 00:52:43 67° NW 00:56:04 10° NE night (unlit)
28 Jul - 02:28:20 10° NW 02:29:59 13° NNW 02:31:38 10° N visible
28 Jul - 05:44:32 10° N 05:46:03 12° NNE 05:47:34 10° NE visible
28 Jul - 07:20:01 10° NW 07:23:21 60° NE 07:26:40 10° ESE daylight
28 Jul - 08:58:18 10° WSW 08:59:41 12° SW 09:01:04 10° SSW daylight
29 Jul - 00:00:47 10° SW 00:04:05 64° SE 00:07:25 10° NE night (unlit)
29 Jul - 01:38:44 10° WNW 01:41:05 18° NNW 01:43:28 10° NNE visible
29 Jul - 06:31:31 10° NW 06:34:39 34° NE 06:37:45 10° ESE daylight
29 Jul - 08:08:33 10° WNW 08:11:14 22° SW 08:13:53 10° S daylight
29 Jul - 23:12:31 10° SSW 23:15:32 33° SE 23:18:35 10° ENE night (unlit)
30 Jul - 00:49:26 10° W 00:52:17 25° NNW 00:55:10 10° NNE visible
30 Jul - 05:43:09 10° NNW 05:45:53 22° NNE 05:48:37 10° E visible
30 Jul - 07:19:32 10° WNW 07:22:44 41° SW 07:25:55 10° SSE daylight
30 Jul - 22:24:45 10° S 22:27:05 18° SE 22:29:26 10° E night (unlit)
31 Jul - 00:00:24 10° WSW 00:03:35 41° NW 00:06:47 10° NE night (unlit)
31 Jul - 01:40:24 10° NNW 01:41:03 10° NNW 01:41:42 10° N visible
31 Jul - 04:54:56 10° NNW 04:57:06 16° NNE 04:59:16 10° ENE visible
31 Jul - 06:30:50 10° NW 06:34:12 81° SW 06:37:33 10° SE daylight
31 Jul - 23:11:39 10° SW 23:14:58 74° NW 23:18:19 10° NE night (unlit)
01 Aug - 00:50:25 10° NW 00:52:12 14° NNW 00:53:59 10° N visible
01 Aug - 04:06:55 10° N 04:08:17 12° NNE 04:09:38 10° NE visible
01 Aug - 05:42:19 10° NW 05:45:38 54° NE 05:48:56 10° ESE visible
01 Aug - 07:20:17 10° W 07:22:01 13° SW 07:23:44 10° SSW daylight
01 Aug - 22:23:11 10° SW 22:26:27 57° SE 22:29:45 10° ENE visible
02 Aug - 00:00:59 10° WNW 00:03:26 19° NNW 00:05:53 10° NNE night (unlit)
02 Aug - 04:53:56 10° NNW 04:57:01 32° NNE 05:00:05 10° E visible
02 Aug - 06:30:51 10° WNW 06:33:39 24° SW 06:36:26 10° S daylight
02 Aug - 21:35:05 10° SSW 21:38:02 30° SE 21:41:00 10° ENE visible
02 Aug - 23:11:50 10° W 23:14:45 27° NNW 23:17:41 10° NNE visible
03 Aug - 04:05:42 10° NNW 04:08:22 21° NNE 04:11:01 10° E visible
03 Aug - 05:42:01 10° WNW 05:45:15 45° SW 05:48:29 10° SSE visible
03 Aug - 20:47:32 10° S 20:49:42 16° SE 20:51:52 10° E daylight
03 Aug - 22:22:57 10° WSW 22:26:10 44° NW 22:29:24 10° NE visible
